Location: Eymir
(36.7333°N, 29.7833°E)
Time: 03:17:02
(UTC+00:00)

BlueWalker 3 - Visible Passes

Search period start: 09 March 2026 00:00
Search period end: 19 March 2026 00:00
Orbit: 451 x 458 km, 53.2° (Epoch: 8 March)

Date Brightness Start Highest point End Pass type
(mag) Time Alt. Az. Time Alt. Az. Time Alt. Az.
12 Mar 4.0 03:52:27 10° NNW 03:55:20 22° NNE 03:58:13 10° E visible
13 Mar 4.3 03:16:30 10° NNW 03:19:04 18° NNE 03:21:36 10° ENE visible
14 Mar 4.5 02:40:35 10° N 02:42:44 15° NNE 02:44:52 10° ENE visible
15 Mar 4.6 02:05:06 11° N 02:06:23 12° NNE 02:07:59 10° NE visible
15 Mar 2.0 03:40:48 10° NW 03:44:23 70° NE 03:47:56 10° SE visible
16 Mar 5.1 01:30:35 10° NNE 01:30:35 10° NNE 01:30:44 10° NE visible
16 Mar 2.6 03:04:37 10° NW 03:08:08 49° NE 03:11:37 10° ESE visible
17 Mar 3.1 02:29:56 21° NNW 02:31:50 37° NE 02:35:11 10° ESE visible
18 Mar 3.7 01:55:45 28° NE 01:55:45 28° NE 01:58:39 10° E visible
18 Mar 2.7 03:29:46 10° WNW 03:32:53 28° SW 03:36:00 10° S visible
